Regional Weather Roundup
Issued by NWS

Home | Current Version | Previous Version | Graphics & Text | Print | Product List | Glossary On
Versions: 1 2 3 4 5 6 7 8 9 10 11 12 13 14 15 16 17 18 19 20 21 22 23 24 25 26 27 28 29 30 31 32 33 34 35 36 37 38 39 40 41 42 43 44 45 46 47 48 49 50
000
ASUS45 KSLC 301110
RWRUT

UTAH REGIONAL WEATHER ROUNDUP
NATIONAL WEATHER SERVICE SALT LAKE CITY UT
400 AM MST FRI JAN 30 2015

UTZ001>011-023>025-301200-

NORTHERN UTAH

CITY           SKY/WX    TMP DP  RH WIND       PRES   REMARKS
BRIGHAM CITY   CLOUDY    38  33  85 N3        30.21F
HILL AFB       CLOUDY    39  31  72 NW3       30.19F
LOGAN          FOG       32  31  96 CALM      30.22F VSB 1/2
OGDEN          CLOUDY    38  33  82 NW5       30.19F WCI  34
PROVO AIRPORT  CLOUDY    37  34  87 CALM      30.20F
SALT LAKE CITY CLOUDY    38  36  92 CALM      30.20F
VERNAL         LGT RAIN  35  33  92 NW3       30.25F FOG
WENDOVER       CLOUDY    37  30  75 CALM      30.20F
HEBER CITY     CLOUDY    34  32  93 CALM      30.21F
WEST JORDAN    CLOUDY    37  37 100 CALM      30.21F

$$

UTZ012>022-026-027-301200-

SOUTHERN/CENTRAL UTAH

CITY           SKY/WX    TMP DP  RH WIND       PRES   REMARKS
BLANDING       CLOUDY    36  30  78 SE14G24   30.31S WCI  27
BRYCE CANYON   LGT SNOW  32  31  96 E8        30.14F FOG     WCI  25
CEDAR CITY     CLOUDY    36  36 100 W3        30.09F FOG
DELTA          CLOUDY    37  37 100 CALM      30.17F
HANKSVILLE     CLOUDY    39  37  93 CALM      30.22F
MILFORD        LGT RAIN  39  37  92 N12       30.13F FOG     WCI  32
MOAB/CYNLANDS  CLOUDY    40  38  93 CALM      30.19F
PRICE          CLOUDY    37  34  89 N3        30.21F
ST GEORGE      CLOUDY    48  43  81 NE5       30.09F
KANAB            N/A     43  37  81 NE14      30.13F

$$

REGIONAL REPORTS     COLORADO/ARIZONA

CITY           SKY/WX    TMP DP  RH WIND       PRES   REMARKS
CRAIG, CO      CLOUDY    32  29  88 CALM      30.27F
GRAND JUNCTION CLOUDY    39  33  79 CALM      30.21F
RIFLE          CLOUDY    35  29  78 E5        30.24F WCI  31
MONTROSE       CLOUDY    38  29  70 CALM      30.24F
CORTEZ         CLOUDY    40  28  62 SW6       30.23F
PAGE, AZ       NOT AVBL
GRAND CANYON   LGT RAIN  36  35  96 NE10      30.07F WCI  28
KINGMAN        LGT RAIN  48  47  96 N6        29.99F
FLAGSTAFF      LGT RAIN  38  35  89 E7        30.06F WCI  33

$$

REGIONAL REPORTS    NEVADA/IDAHO/WYOMING

CITY           SKY/WX    TMP DP  RH WIND       PRES   REMARKS
LAS VEGAS, NV  CLOUDY    57  40  52 E5        29.97F
ELY            CLOUDY    35  34  96 N6        30.15F WCI  30
ELKO           CLOUDY    34  31  88 SW3       30.16F
POCATELLO, ID  CLEAR     28  27  96 CALM      30.25F
BURLEY         CLOUDY    32  29  88 NE3       30.24S
EVANSTON, WY   CLOUDY    30  25  81 N6        30.22F WCI  24
ROCK SPRINGS   CLOUDY    29  26  89 CALM      30.23F
KEMMERER       CLOUDY    27  23  86 NW6       30.23F WCI  20

$$


USA.gov is the U.S. government's official web portal to all federal, state and local government web resources and services.